Location: Bremen
(53.0793°N, 8.8017°E)
Time: 22:28:28
(UTC+01:00)

Explorer 7 - Pass Details

Date: 28 November 2021
Orbit: 483 x 674 km, 50.3° (Epoch: 17 January)

Event Time Altitude Azimuth Distance (km) Brightness Sun altitude
Rises 10:48:56 0° 259° (W) 2,656 10.2 13.4°
Reaches altitude 10° 10:51:13 10° 255° (WSW) 1,740 9.4 13.5°
Maximum altitude 10:55:04 57° 177° (S) 594 7.8 13.7°
Drops below altitude 10° 10:58:46 10° 99° (E) 1,678 9.7 13.8°
Sets 11:00:56 0° 95° (E) 2,550 10.5 13.9°
